Weather observations for the past three days for
Aurora Municipal Airport
Metric (Imperial)
Date Time (cdt) Wind (kph) Vis. (km) Weather Sky Cond. Temperature (ºC) Relative Humidity Wind Chill (°C) Heat Index (°C) Pressure Precipitation (cm)
Air Dwpt 6 hour altimeter (cm) sea level (mb) 1 hr 3 hr 6 hr
Max. Min.
15 05:52 Calm 9.66 Fog/Mist CLR 20 18.9 93% 75.87 1010.9
15 04:52 Calm 14.48 Fair CLR 20 19.4 96% 75.87 1010.9
15 03:52 W 6 16.09 Fair CLR 20.6 19.4 93% 75.87 1010.8
15 02:52 SW 11 14.48 Fair CLR 21.1 20 93% 75.82 1010.3
15 01:52 S 6 16.09 Fair CLR 21.1 19.4 90% 75.84 1010.5
15 00:52 Calm 16.09 Partly Cloudy SCT060 21.7 19.4 28.3 21.1 87% 75.87 1011.0 4.14
14 23:52 Calm 16.09 Thunderstorm in Vicinity Light Rain FEW030 BKN090 BKN110 21.7 20 90% 75.9 1011.1 0.15
14 22:52 W 11 G 28 2.41 Thunderstorm Rain Fog/Mist SCT055 BKN075 OVC085 21.7 20.6 94% 75.9 1011.5 3.61
14 21:52 NW 30 G 48 2.41 Thunderstorm Heavy Rain FEW010 BKN037 OVC047 22.2 19.4 84% 75.92 1011.7 0.38 0.38
14 20:52 SE 15 14.48 Fair CLR 27.8 23.9 79% 32 75.77 1009.6
14 19:52 S 13 12.87 Fair CLR 28.3 23.9 77% 32 75.79 1010.0
14 18:52 S 9 14.48 A Few Clouds FEW046 30 23.9 31.1 27.8 70% 35 75.92 1011.6 0.1
14 17:52 S 11 16.09 Mostly Cloudy FEW035 BKN047 31.1 23.3 63% 36 75.95 1011.8
14 16:52 SW 19 16.09 A Few Clouds FEW039 31.1 22.8 61% 35 75.95 1012.1
14 15:52 SW 13 16.09 Fair CLR 30.6 23.3 65% 35 76 1012.5 0.1 0.1
14 14:52 S 19 16.09 Fair CLR 28.3 22.8 72% 32 76 1012.8
14 13:52 SW 26 G 39 16.09 Fair CLR 29.4 22.2 65% 33 76 1012.7
14 12:52 SW 19 16.09 Fair CLR 28.3 22.2 28.3 20.6 70% 31 76.02 1013.0 0.46
14 10:52 S 20 G 35 16.09 Fair CLR 21.1 18.9 87% 76.2 1015.4
14 09:52 SW 26 G 33 16.09 Fair CLR 21.7 19.4 87% 76.23 1015.7 0.05 0.46
14 08:52 E 17 11.27 Light Rain FEW070 SCT090 OVC110 20.6 18.3 87% 76.23 1015.7 0.41
14 07:52 Calm 12.87 Mostly Cloudy FEW009 FEW032 BKN049 22.2 20 87% 76.33 1017.1
14 06:52 SE 9 12.87 Fair CLR 21.1 18.9 21.7 20 87% 76.2 1015.3 0.15
14 05:52 SE 17 14.48 A Few Clouds FEW022 20 18.3 90% 76.23 1015.6
14 04:52 S 11 16.09 Fair CLR 20 18.3 90% 76.17 1015.0
14 03:52 S 11 16.09 Fair CLR 20.6 18.9 90% 76.17 1014.9 0.15
14 02:52 NE 6 16.09 Mostly Cloudy BKN100 20.6 18.3 87% 76.25 1015.9 0.1
14 01:52 N 15 G 41 11.27 Thunderstorm in Vicinity Light Rain SCT030 BKN065 OVC100 20.6 18.3 87% 76.45 1018.7 0.05
14 00:52 NE 30 G 35 16.09 Mostly Cloudy SCT026 SCT034 BKN090 21.7 17.8 26.1 21.7 79% 76.4 1018.0
13 23:52 NE 33 G 52 16.09 Overcast and Breezy SCT015 BKN022 OVC033 22.8 18.3 76% 76.43 1018.4
13 22:52 E 6 9.66 Fog/Mist BKN033 25 22.8 88% 26 76.35 1017.4
13 20:52 SE 7 11.27 Fair CLR 24.4 22.2 88% 25 76.28 1016.4
13 19:52 SE 13 11.27 Fair CLR 25.6 21.7 79% 27 76.28 1016.4
13 18:52 S 15 12.87 Fair CLR 25.6 20 31.7 21.1 71% 27 76.28 1016.4 1.12
13 17:52 S 15 14.48 Fair CLR 23.3 19.4 79% 76.33 1017.1
13 16:52 E 6 8.05 Thunderstorm Light Rain Fog/Mist FEW026 SCT075 BKN110 21.1 18.9 87% 76.45 1019.1 1.09
13 15:52 S 13 12.87 Light Rain SCT032 SCT041 BKN070 30 22.8 65% 34 76.4 1018.0 0.03 0.03
13 14:52 S 19 14.48 Mostly Cloudy SCT065 BKN090 31.7 21.7 55% 35 76.45 1018.6
13 13:52 S 13 G 31 14.48 Fair CLR 31.7 22.2 57% 36 76.48 1019.2
13 12:52 S 19 12.87 A Few Clouds FEW032 30.6 22.8 30.6 21.7 63% 35 76.5 1019.3
13 11:52 S 19 11.27 Fair CLR 29.4 22.8 68% 33 76.53 1019.7
13 10:52 SE 17 12.87 A Few Clouds FEW030 28.9 21.7 65% 32 76.56 1020.0
13 09:52 S 15 12.87 Partly Cloudy FEW039 SCT075 27.2 21.1 69% 29 76.61 1020.8
13 08:52 SE 13 11.27 Partly Cloudy FEW039 SCT055 26.1 21.1 74% 28 76.63 1021.0
13 07:52 SE 9 6.44 Partly Cloudy with Haze SCT060 23.3 20.6 85% 76.63 1021.1
13 06:52 Calm 8.05 Fair with Haze CLR 21.7 18.9 21.7 17.8 84% 76.61 1020.9
13 05:52 NE 6 6.44 Fog/Mist FEW100 18.9 17.2 90% 76.58 1020.5
13 04:52 E 6 8.05 Fog/Mist CLR 18.3 16.7 90% 76.58 1020.5
13 03:52 NE 6 9.66 Fog/Mist CLR 18.3 16.7 90% 76.56 1020.1
13 02:52 Calm 11.27 Fair CLR 18.9 17.2 90% 76.56 1020.0
13 01:52 NE 6 9.66 Fog/Mist CLR 19.4 17.2 87% 76.53 1019.8
13 00:52 E 6 11.27 Fair CLR 19.4 17.8 28.3 19.4 91% 76.56 1020.1
12 23:52 Calm 11.27 Fair CLR 21.1 18.3 84% 76.53 1019.8
12 22:52 Calm 12.87 A Few Clouds FEW047 23.3 19.4 79% 76.56 1020.1
12 21:52 Calm 11.27 Mostly Cloudy BKN048 22.8 20.6 87% 76.53 1019.8
12 20:52 Calm 9.66 Fair with Haze CLR 23.3 20.6 85% 76.5 1019.4
12 19:52 W 6 16.09 Fair CLR 26.1 21.1 74% 28 76.48 1019.0
12 18:52 W 7 16.09 Fair CLR 28.3 20.6 30 27.8 63% 30 76.45 1018.7
12 17:52 W 7 12.87 Fair CLR 28.9 19.4 57% 30 76.43 1018.5
12 16:52 W 7 12.87 Fair CLR 29.4 18.9 53% 31 76.43 1018.4
12 15:52 Calm 16.09 Fair CLR 28.9 18.3 53% 30 76.45 1018.9
12 14:52 Calm 11.27 Fair CLR 29.4 18.9 53% 31 76.48 1019.2
12 13:52 W 7 12.87 Mostly Cloudy BKN042 28.3 18.9 57% 30 76.5 1019.5
12 12:52 NE 7 12.87 Partly Cloudy SCT040 28.3 18.9 28.9 18.3 57% 30 76.5 1019.7
12 11:52 NE 7 12.87 Partly Cloudy SCT035 27.2 18.9 61% 28 76.56 1020.3
12 10:52 Calm 12.87 Fair CLR 26.7 18.9 62% 28 76.56 1020.2
12 09:52 NE 7 12.87 Fair CLR 25 18.9 69% 26 76.56 1020.1
12 08:52 Calm 12.87 Fair CLR 22.8 18.3 76% 76.56 1020.3
12 07:52 NE 6 11.27 Fair CLR 21.1 17.2 79% 76.56 1020.1
12 06:52 Calm 8.05 Fog/Mist CLR 18.3 16.7 18.3 15 90% 76.48 1019.3
Date Time (cdt) Wind (kph) Vis. (km) Weather Sky Cond. Air Dwpt Max. Min. Relative Humidity Wind Chill (°C) Heat Index (°C) altimeter (cm) sea level (mb) 1 hr 3 hr 6 hr
6 hour
Temperature (ºC) Pressure Precipitation (cm)